UAL1375 KPHX-KEWR

Flight info

Callsign UAL1375
Flight time N/A
Altitude 37000
Route ECLPS1 PHASE EWM J66 ABI J4 FUZ UIM ELD IZAAC Q30 HRISN/N0446F390 Q30 VLKNN THRSR TWOUP Q22 UMBRE QUART PHLBO4
Aircraft B38M/M-SDE1FGHILORVWXY/HB1

Departure

Time 2026-05-01 07:25
Airport Phoenix Sky Harbor International Airport (KPHX)

Arrival

Time N/A
Airport Newark Liberty International Airport (KEWR)
Time Latitude Longitude Altitude Speed Heading
2026-05-01 07:23 33.43971 -111.99225 1133 ft 0 kts
2026-05-01 07:23 33.44047 -111.99224 1139 ft 10 kts
2026-05-01 07:24 33.44084 -111.99270 1138 ft 1 kts 266°
2026-05-01 07:24 33.44084 -111.99271 1138 ft 0 kts 266°
2026-05-01 07:24 33.44082 -111.99441 1139 ft 55 kts 270°
2026-05-01 07:25 33.44083 -112.00196 1133 ft 124 kts 269°
2026-05-01 07:25 33.44083 -112.01474 1134 ft 180 kts 271°
2026-05-01 07:25 33.44105 -112.03042 1620 ft 193 kts 262°
2026-05-01 07:25 33.43778 -112.04633 2312 ft 200 kts 246°
2026-05-01 07:26 33.43281 -112.06245 3028 ft 214 kts 245°
2026-05-01 07:26 33.42704 -112.07944 3750 ft 227 kts 245°
2026-05-01 07:26 33.42088 -112.09734 4513 ft 237 kts 247°
2026-05-01 07:26 33.41523 -112.11600 5099 ft 242 kts 250°
2026-05-01 07:27 33.40944 -112.13524 5690 ft 250 kts 251°
2026-05-01 07:27 33.40017 -112.15316 6265 ft 261 kts 224°
2026-05-01 07:27 33.38409 -112.16356 6830 ft 271 kts 195°
2026-05-01 07:27 33.36502 -112.16407 7453 ft 280 kts 168°
2026-05-01 07:28 33.34690 -112.15498 8117 ft 287 kts 150°
2026-05-01 07:28 33.32876 -112.14406 8771 ft 297 kts 155°
2026-05-01 07:28 33.31174 -112.13024 9444 ft 300 kts 127°
2026-05-01 07:28 33.30210 -112.10840 10102 ft 300 kts 105°
2026-05-01 07:29 33.29526 -112.08442 10718 ft 311 kts 111°
2026-05-01 07:29 33.28619 -112.06021 11175 ft 329 kts 111°
2026-05-01 07:29 33.27676 -112.03443 11383 ft 348 kts 110°
2026-05-01 07:29 33.26693 -112.00717 11609 ft 364 kts 111°
2026-05-01 07:30 33.25689 -111.97905 11809 ft 371 kts 111°
2026-05-01 07:30 33.24679 -111.95049 12018 ft 374 kts 110°
2026-05-01 07:30 33.23671 -111.92179 12233 ft 375 kts 110°
2026-05-01 07:30 33.22662 -111.89301 12434 ft 376 kts 109°
2026-05-01 07:31 33.21656 -111.86428 12845 ft 375 kts 110°
2026-05-01 07:31 33.18603 -111.77732 14545 ft 385 kts 110°
2026-05-01 07:32 33.16509 -111.71781 15677 ft 395 kts 110°
2026-05-01 07:32 33.15435 -111.68736 16252 ft 399 kts 111°
2026-05-01 07:33 33.13261 -111.62575 17409 ft 408 kts 112°
2026-05-01 07:33 33.12155 -111.59448 18005 ft 410 kts 112°
2026-05-01 07:33 33.09922 -111.53140 18986 ft 418 kts 112°
2026-05-01 07:34 33.08799 -111.49972 19455 ft 421 kts 112°
2026-05-01 07:34 33.06311 -111.43589 20338 ft 431 kts 122°
2026-05-01 07:34 33.04656 -111.40617 20922 ft 431 kts 121°
2026-05-01 07:35 33.03002 -111.37616 21362 ft 435 kts 121°
2026-05-01 07:35 33.01342 -111.34591 21870 ft 437 kts 121°
2026-05-01 07:35 32.99676 -111.31552 22354 ft 440 kts 121°
2026-05-01 07:35 32.97996 -111.28490 22823 ft 442 kts 121°
2026-05-01 07:36 32.96313 -111.25426 23300 ft 445 kts 121°
2026-05-01 07:36 32.94616 -111.22339 23709 ft 447 kts 121°
2026-05-01 07:36 32.92910 -111.19237 24076 ft 450 kts 121°
2026-05-01 07:36 32.91189 -111.16112 24454 ft 452 kts 121°
2026-05-01 07:37 32.87714 -111.09807 25211 ft 457 kts 121°
2026-05-01 07:37 32.85970 -111.06650 25595 ft 459 kts 121°
2026-05-01 07:37 32.84215 -111.03473 25942 ft 461 kts 121°
2026-05-01 07:38 32.82454 -111.00288 26294 ft 463 kts 121°
2026-05-01 07:38 32.80701 -110.97120 26628 ft 466 kts 121°
2026-05-01 07:38 32.77114 -110.90645 27266 ft 471 kts 121°
2026-05-01 07:39 32.75304 -110.87386 27586 ft 474 kts 121°
2026-05-01 07:39 32.73487 -110.84114 27898 ft 477 kts 121°
2026-05-01 07:39 32.69824 -110.77524 28631 ft 479 kts 122°
2026-05-01 07:40 32.67988 -110.74228 29025 ft 480 kts 122°
2026-05-01 07:40 32.66137 -110.70907 29258 ft 484 kts 121°
2026-05-01 07:40 32.64589 -110.67385 29647 ft 481 kts 107°
2026-05-01 07:40 32.63684 -110.63580 30003 ft 480 kts 103°
2026-05-01 07:41 32.62762 -110.59762 30273 ft 481 kts 103°
2026-05-01 07:41 32.61867 -110.55940 30567 ft 482 kts 102°
2026-05-01 07:41 32.60128 -110.48250 31115 ft 485 kts 101°
2026-05-01 07:42 32.59272 -110.44380 31442 ft 485 kts 103°
2026-05-01 07:42 32.58416 -110.40525 31818 ft 484 kts 102°
2026-05-01 07:42 32.57557 -110.36668 32117 ft 484 kts 102°
2026-05-01 07:42 32.56697 -110.32805 32397 ft 485 kts 102°
2026-05-01 07:43 32.55836 -110.28943 32717 ft 485 kts 101°
2026-05-01 07:43 32.54971 -110.25071 32997 ft 486 kts 101°
2026-05-01 07:43 32.53250 -110.17382 33462 ft 489 kts 101°
2026-05-01 07:44 32.51510 -110.09628 34068 ft 488 kts 102°
2026-05-01 07:44 32.49759 -110.01857 34519 ft 488 kts 102°
2026-05-01 07:45 32.48880 -109.97963 34723 ft 489 kts 102°
2026-05-01 07:45 32.47997 -109.94060 34914 ft 490 kts 102°
2026-05-01 07:45 32.47116 -109.90170 35079 ft 491 kts 102°
2026-05-01 07:45 32.46239 -109.86305 35265 ft 492 kts 102°
2026-05-01 07:46 32.45348 -109.82381 35444 ft 493 kts 102°
2026-05-01 07:46 32.44456 -109.78457 35614 ft 494 kts 103°
2026-05-01 07:46 32.43387 -109.71787 35820 ft 496 kts 97°
2026-05-01 07:47 32.42663 -109.66429 36044 ft 497 kts 97°
2026-05-01 07:47 32.41788 -109.59707 36282 ft 498 kts 97°
2026-05-01 07:47 32.41272 -109.55644 36439 ft 499 kts 97°
2026-05-01 07:48 32.40240 -109.47535 36715 ft 500 kts 97°
2026-05-01 07:48 32.39721 -109.43462 36833 ft 501 kts 98°
2026-05-01 07:48 32.39195 -109.39371 36841 ft 503 kts 99°
2026-05-01 07:49 32.37606 -109.27059 36837 ft 505 kts 99°
2026-05-01 07:50 32.36548 -109.18903 36839 ft 505 kts 99°
2026-05-01 07:50 32.34943 -109.06570 36844 ft 506 kts 100°
2026-05-01 07:51 32.33864 -108.98356 36839 ft 506 kts 100°
2026-05-01 07:52 32.32243 -108.86069 36844 ft 506 kts 100°
2026-05-01 07:52 32.31149 -108.77833 36857 ft 506 kts 100°
2026-05-01 07:53 32.30062 -108.69677 37029 ft 505 kts 101°
2026-05-01 07:53 32.29512 -108.65579 37037 ft 505 kts 101°
2026-05-01 07:53 32.28408 -108.57364 36998 ft 505 kts 101°
2026-05-01 07:55 32.25606 -108.36700 36901 ft 512 kts 102°
2026-05-01 07:56 32.22756 -108.15962 36844 ft 512 kts 102°
2026-05-01 07:57 32.21033 -108.03546 36838 ft 512 kts 102°
2026-05-01 07:58 32.18710 -107.86942 36823 ft 512 kts 103°
2026-05-01 07:58 32.17547 -107.78699 37000 ft 512 kts 103°
2026-05-01 07:59 32.16372 -107.70388 36988 ft 513 kts 103°
2026-05-01 08:00 32.12799 -107.45425 36891 ft 515 kts 103°
2026-05-01 08:01 32.10387 -107.28766 36826 ft 517 kts 104°
2026-05-01 08:02 32.08563 -107.16270 36866 ft 517 kts 105°
2026-05-01 08:03 32.06718 -107.03720 36900 ft 517 kts 105°
2026-05-01 08:03 32.04853 -106.91132 36888 ft 521 kts 105°
2026-05-01 08:04 32.02352 -106.74374 36942 ft 521 kts 106°
2026-05-01 08:05 32.00440 -106.61678 36985 ft 525 kts 106°
2026-05-01 08:06 31.98522 -106.49011 36951 ft 524 kts 106°
2026-05-01 08:07 31.95949 -106.32140 36967 ft 524 kts 107°
2026-05-01 08:07 31.95742 -106.23547 36953 ft 536 kts 83°
2026-05-01 08:08 31.96334 -106.19200 36920 ft 537 kts 88°
2026-05-01 08:09 31.98077 -106.01741 36899 ft 538 kts 86°
2026-05-01 08:09 31.99020 -105.92965 36871 ft 540 kts 86°
2026-05-01 08:10 32.00880 -105.75447 36883 ft 540 kts 87°
2026-05-01 08:11 32.02722 -105.57861 36882 ft 543 kts 87°
2026-05-01 08:12 32.04097 -105.44557 36903 ft 544 kts 87°
2026-05-01 08:13 32.05457 -105.31296 36902 ft 544 kts 87°
2026-05-01 08:13 32.06806 -105.17979 36908 ft 547 kts 88°
2026-05-01 08:14 32.07702 -105.09062 36899 ft 546 kts 88°
2026-05-01 08:14 32.08585 -105.00208 36914 ft 547 kts 88°
2026-05-01 08:15 32.09907 -104.86840 36909 ft 547 kts 88°
2026-05-01 08:16 32.10778 -104.77947 36909 ft 548 kts 88°
2026-05-01 08:16 32.11648 -104.68997 36923 ft 548 kts 88°
2026-05-01 08:17 32.12504 -104.60119 36927 ft 548 kts 88°
2026-05-01 08:17 32.13363 -104.51148 36924 ft 548 kts 88°
2026-05-01 08:18 32.14208 -104.42265 36981 ft 548 kts 88°
2026-05-01 08:19 32.15887 -104.24400 36995 ft 547 kts 88°
2026-05-01 08:19 32.16714 -104.15504 36994 ft 549 kts 88°
2026-05-01 08:20 32.17541 -104.06524 36980 ft 550 kts 88°
2026-05-01 08:20 32.18357 -103.97611 36932 ft 549 kts 88°
2026-05-01 08:21 32.19173 -103.88615 36936 ft 549 kts 88°
2026-05-01 08:21 32.19981 -103.79642 36929 ft 550 kts 88°
2026-05-01 08:22 32.20780 -103.70695 36934 ft 551 kts 88°
2026-05-01 08:22 32.21578 -103.61682 36945 ft 551 kts 89°
2026-05-01 08:23 32.22369 -103.52684 36942 ft 551 kts 89°
2026-05-01 08:23 32.23149 -103.43729 36942 ft 551 kts 89°
2026-05-01 08:24 32.23930 -103.34695 36949 ft 552 kts 89°
2026-05-01 08:24 32.24703 -103.25668 36949 ft 551 kts 89°
2026-05-01 08:25 32.25465 -103.16701 36955 ft 551 kts 89°
2026-05-01 08:25 32.26222 -103.07719 36957 ft 553 kts 89°
2026-05-01 08:26 32.26979 -102.98651 36954 ft 554 kts 89°
2026-05-01 08:26 32.27729 -102.89600 36955 ft 553 kts 89°
2026-05-01 08:27 32.28468 -102.80585 36954 ft 553 kts 89°
2026-05-01 08:27 32.29206 -102.71515 36952 ft 554 kts 89°
2026-05-01 08:28 32.29941 -102.62403 36963 ft 555 kts 89°
2026-05-01 08:28 32.30661 -102.53388 36956 ft 555 kts 89°
2026-05-01 08:29 32.31380 -102.44293 36955 ft 555 kts 89°
2026-05-01 08:29 32.32094 -102.35201 36950 ft 556 kts 89°
2026-05-01 08:30 32.32802 -102.26088 36956 ft 557 kts 89°
2026-05-01 08:30 32.33501 -102.17000 36985 ft 557 kts 89°
2026-05-01 08:31 32.34193 -102.07921 36985 ft 557 kts 89°
2026-05-01 08:31 32.34882 -101.98798 36960 ft 558 kts 89°
2026-05-01 08:32 32.35568 -101.89637 36980 ft 559 kts 89°
2026-05-01 08:32 32.36244 -101.80536 36985 ft 558 kts 89°
2026-05-01 08:33 32.36918 -101.71385 36976 ft 558 kts 89°
2026-05-01 08:33 32.37584 -101.62252 36978 ft 559 kts 90°
2026-05-01 08:34 32.38247 -101.53054 36986 ft 560 kts 90°
2026-05-01 08:34 32.38756 -101.45403 36982 ft 559 kts 90°
2026-05-01 08:35 32.39340 -101.36283 36989 ft 559 kts 90°
2026-05-01 08:35 32.39934 -101.27090 36962 ft 559 kts 90°
2026-05-01 08:36 32.40517 -101.17895 36997 ft 560 kts 90°
2026-05-01 08:36 32.41095 -101.08723 37003 ft 560 kts 91°
2026-05-01 08:37 32.41662 -100.99588 37018 ft 560 kts 91°
2026-05-01 08:37 32.42227 -100.90376 37014 ft 559 kts 91°
2026-05-01 08:38 32.42784 -100.81195 37016 ft 560 kts 91°
2026-05-01 08:38 32.43332 -100.72052 37051 ft 559 kts 91°
2026-05-01 08:39 32.43877 -100.62849 37060 ft 559 kts 91°
2026-05-01 08:39 32.44411 -100.53717 37087 ft 559 kts 91°
2026-05-01 08:40 32.45207 -100.39885 37101 ft 560 kts 91°
2026-05-01 08:40 32.45725 -100.30736 37011 ft 560 kts 91°
2026-05-01 08:41 32.46239 -100.21538 37015 ft 560 kts 91°
2026-05-01 08:41 32.46748 -100.12305 37039 ft 562 kts 91°
2026-05-01 08:42 32.47250 -100.03111 37050 ft 562 kts 91°
2026-05-01 08:42 32.47746 -99.93887 37064 ft 562 kts 91°
2026-05-01 08:43 32.48474 -99.84697 37060 ft 567 kts 82°
2026-05-01 08:43 32.49938 -99.75476 37097 ft 570 kts 83°
2026-05-01 08:44 32.51410 -99.66240 37068 ft 571 kts 82°
2026-05-01 08:44 32.52895 -99.57051 37071 ft 571 kts 82°
2026-05-01 08:45 32.54382 -99.47787 37053 ft 571 kts 82°
2026-05-01 08:45 32.55865 -99.38501 37046 ft 574 kts 82°
2026-05-01 08:46 32.57337 -99.29247 37033 ft 574 kts 82°
2026-05-01 08:46 32.58810 -99.19933 37042 ft 574 kts 82°
2026-05-01 08:47 32.60268 -99.10666 37059 ft 574 kts 82°
2026-05-01 08:47 32.61728 -99.01345 37066 ft 576 kts 82°
2026-05-01 08:48 32.63178 -98.92044 37072 ft 576 kts 82°
2026-05-01 08:48 32.64629 -98.82683 37075 ft 576 kts 82°
2026-05-01 08:49 32.66069 -98.73347 37068 ft 576 kts 83°
2026-05-01 08:49 32.67498 -98.64026 37059 ft 578 kts 82°
2026-05-01 08:50 32.68936 -98.54609 37045 ft 578 kts 82°
2026-05-01 08:50 32.70362 -98.45224 37043 ft 578 kts 82°
2026-05-01 08:51 32.71777 -98.35854 37057 ft 579 kts 83°
2026-05-01 08:51 32.73196 -98.26405 37059 ft 580 kts 82°
2026-05-01 08:52 32.74600 -98.17023 37056 ft 580 kts 82°
2026-05-01 08:52 32.76006 -98.07561 37065 ft 580 kts 82°
2026-05-01 08:53 32.77396 -97.98160 37067 ft 580 kts 82°
2026-05-01 08:53 32.78785 -97.88720 37061 ft 581 kts 82°
2026-05-01 08:54 32.80171 -97.79249 37055 ft 581 kts 82°
2026-05-01 08:54 32.81542 -97.69821 37057 ft 581 kts 82°
2026-05-01 08:55 32.82910 -97.60369 37055 ft 581 kts 82°
2026-05-01 08:55 32.83581 -97.55712 37628 ft 560 kts 79°
2026-05-01 08:55 32.84221 -97.51264 37818 ft 531 kts 79°
2026-05-01 08:56 32.84831 -97.47012 37831 ft 515 kts 79°
2026-05-01 08:56 32.85428 -97.42839 37829 ft 510 kts 79°
2026-05-01 08:56 32.86599 -97.34630 37826 ft 500 kts 79°
2026-05-01 08:57 32.87749 -97.26532 37821 ft 492 kts 79°
2026-05-01 08:57 32.88858 -97.18595 37816 ft 484 kts 82°
2026-05-01 08:58 32.88986 -97.10669 37873 ft 474 kts 89°
2026-05-01 08:58 32.88980 -97.02897 37817 ft 468 kts 89°
2026-05-01 08:59 32.88986 -96.95197 37813 ft 462 kts 89°
2026-05-01 08:59 32.88988 -96.87636 37818 ft 456 kts 89°
2026-05-01 09:00 32.88987 -96.83871 37415 ft 454 kts 92°
2026-05-01 09:00 32.88990 -96.80062 37104 ft 460 kts 95°
2026-05-01 09:00 32.88985 -96.76306 37356 ft 448 kts 96°
2026-05-01 09:00 32.88981 -96.72659 37605 ft 435 kts 96°
2026-05-01 09:01 32.88984 -96.69125 37726 ft 426 kts 94°
2026-05-01 09:01 32.89202 -96.65583 37459 ft 434 kts 80°
2026-05-01 09:01 32.90031 -96.62136 36687 ft 443 kts 58°
2026-05-01 09:01 32.91785 -96.59133 35372 ft 442 kts 27°
2026-05-01 09:02 32.94392 -96.57494 33874 ft 409 kts 347°
2026-05-01 09:02 32.96855 -96.58090 32235 ft 329 kts 297°
2026-05-01 09:02 32.97392 -96.60241 30480 ft 282 kts 238°
2026-05-01 09:02 32.95433 -96.61018 27879 ft 391 kts 166°
2026-05-01 09:03 32.93864 -96.57988 24954 ft 509 kts 79°
2026-05-01 09:03 32.96079 -96.55338 22492 ft 453 kts 342°
2026-05-01 09:03 32.97456 -96.57563 20594 ft 371 kts 239°
2026-05-01 09:03 32.95001 -96.57601 18044 ft 481 kts 126°
2026-05-01 09:04 32.95206 -96.54416 16979 ft 345 kts 54°
2026-05-01 09:04 32.96493 -96.51865 15478 ft 377 kts 55°
2026-05-01 09:04 32.97935 -96.49044 13648 ft 427 kts 56°
2026-05-01 09:04 32.99466 -96.46023 13681 ft 419 kts 57°
2026-05-01 09:05 33.00746 -96.43190 16042 ft 353 kts 61°
2026-05-01 09:05 33.01662 -96.40675 18277 ft 318 kts 66°
2026-05-01 09:05 33.02429 -96.38105 18253 ft 343 kts 70°
2026-05-01 09:05 33.03154 -96.35229 15953 ft 397 kts 73°
2026-05-01 09:06 33.03858 -96.31750 14037 ft 451 kts 77°
2026-05-01 09:06 33.04363 -96.28206 15046 ft 407 kts 82°
2026-05-01 09:06 33.04603 -96.25124 17678 ft 345 kts 88°
2026-05-01 09:06 33.04657 -96.22355 18997 ft 335 kts 93°
2026-05-01 09:07 33.04556 -96.19453 18175 ft 366 kts 97°
2026-05-01 09:07 33.04271 -96.16215 15629 ft 428 kts 99°
2026-05-01 09:07 33.03714 -96.12591 14546 ft 449 kts 103°
2026-05-01 09:07 33.02944 -96.09184 16210 ft 395 kts 110°
2026-05-01 09:08 33.02095 -96.06341 18695 ft 341 kts 118°
2026-05-01 09:08 33.01143 -96.03789 19471 ft 342 kts 123°
2026-05-01 09:08 32.99971 -96.01230 18447 ft 371 kts 128°
2026-05-01 09:08 32.98444 -95.98465 16006 ft 427 kts 131°
2026-05-01 09:09 32.96533 -95.95592 14990 ft 442 kts 136°
2026-05-01 09:09 32.94519 -95.93010 16485 ft 395 kts 142°
2026-05-01 09:09 32.92679 -95.90980 19098 ft 330 kts 150°
2026-05-01 09:09 32.90964 -95.89376 20359 ft 313 kts 156°
2026-05-01 09:10 32.89057 -95.87929 19745 ft 335 kts 162°
2026-05-01 09:10 32.86832 -95.86592 17473 ft 385 kts 166°
2026-05-01 09:10 32.84164 -95.85394 15650 ft 424 kts 169°
2026-05-01 09:10 32.81389 -95.84488 16353 ft 392 kts 176°
2026-05-01 09:11 32.78984 -95.84007 18933 ft 318 kts 186°
2026-05-01 09:11 32.76950 -95.83862 20922 ft 274 kts 194°
2026-05-01 09:11 32.75040 -95.84037 21059 ft 284 kts 202°
2026-05-01 09:11 32.73050 -95.84561 19346 ft 314 kts 208°
2026-05-01 09:12 32.70822 -95.85547 16938 ft 369 kts 212°
2026-05-01 09:12 32.68488 -95.86998 16195 ft 373 kts 218°
2026-05-01 09:12 32.66463 -95.88611 18007 ft 319 kts 226°
2026-05-01 09:12 32.64962 -95.90103 20653 ft 248 kts 233°
2026-05-01 09:13 32.63878 -95.91495 22178 ft 225 kts 240°
2026-05-01 09:13 32.62967 -95.93111 21602 ft 247 kts 246°
2026-05-01 09:13 32.62154 -95.95115 19317 ft 299 kts 252°
2026-05-01 09:13 32.61426 -95.97689 17107 ft 353 kts 257°
2026-05-01 09:14 32.60895 -96.00541 17109 ft 345 kts 262°
2026-05-01 09:14 32.60672 -96.03105 19420 ft 279 kts 268°
2026-05-01 09:14 32.60740 -96.05140 22065 ft 222 kts 275°
2026-05-01 09:14 32.61039 -96.06895 23089 ft 222 kts 281°
2026-05-01 09:15 32.61571 -96.08759 21812 ft 258 kts 286°
2026-05-01 09:15 32.62398 -96.10951 19166 ft 327 kts 291°
2026-05-01 09:15 32.63587 -96.13477 17533 ft 367 kts 296°
2026-05-01 09:15 32.65008 -96.15899 18540 ft 338 kts 301°
2026-05-01 09:16 32.66447 -96.17745 21203 ft 273 kts 307°
2026-05-01 09:16 32.67824 -96.19031 23320 ft 246 kts 312°
2026-05-01 09:16 32.69335 -96.20134 23307 ft 272 kts 317°
2026-05-01 09:17 32.73397 -96.22558 18631 ft 392 kts 326°
2026-05-01 09:17 32.75941 -96.23815 18114 ft 400 kts 331°
2026-05-01 09:17 32.80694 -96.25309 22645 ft 300 kts 339°
2026-05-01 09:18 32.82726 -96.25511 23911 ft 296 kts 343°
2026-05-01 09:18 32.87355 -96.25488 20497 ft 390 kts 352°
2026-05-01 09:19 32.93302 -96.24903 19066 ft 424 kts 359°
2026-05-01 09:19 32.95994 -96.24259 21573 ft 362 kts
2026-05-01 09:19 32.98259 -96.23402 23917 ft 326 kts
2026-05-01 09:20 33.02663 -96.21094 22424 ft 387 kts 16°
2026-05-01 09:20 33.08156 -96.17622 18822 ft 471 kts 24°
2026-05-01 09:21 33.12973 -96.13602 23190 ft 369 kts 32°
2026-05-01 09:21 33.14801 -96.11590 24602 ft 355 kts 36°
2026-05-01 09:21 33.18497 -96.06813 21349 ft 445 kts 43°
2026-05-01 09:22 33.22606 -96.00535 19843 ft 474 kts 51°
2026-05-01 09:22 33.25533 -95.94607 24602 ft 371 kts 59°
2026-05-01 09:23 33.26611 -95.91802 24735 ft 389 kts 63°
2026-05-01 09:23 33.28755 -95.85009 20134 ft 498 kts 70°
2026-05-01 09:24 33.30501 -95.77134 21497 ft 447 kts 78°
2026-05-01 09:24 33.30954 -95.73731 24164 ft 389 kts 83°
2026-05-01 09:24 33.31297 -95.67251 24006 ft 416 kts 91°
2026-05-01 09:25 33.30936 -95.59467 19681 ft 511 kts 98°
2026-05-01 09:25 33.29778 -95.51829 23529 ft 403 kts 108°
2026-05-01 09:26 33.29047 -95.48747 25182 ft 374 kts 115°
2026-05-01 09:26 33.27006 -95.42617 22655 ft 439 kts 121°
2026-05-01 09:26 33.26030 -95.40360 20854 ft 480 kts 124°
2026-05-01 09:27 33.22373 -95.33636 21468 ft 441 kts 134°
2026-05-01 09:27 33.20606 -95.31021 24143 ft 376 kts 141°
2026-05-01 09:27 33.18884 -95.28836 25376 ft 355 kts 148°
2026-05-01 09:28 33.16989 -95.26836 24691 ft 375 kts 153°
2026-05-01 09:28 33.14780 -95.24928 22297 ft 421 kts 156°
2026-05-01 09:28 33.12080 -95.23082 20117 ft 466 kts 161°
2026-05-01 09:28 33.09168 -95.21495 20362 ft 444 kts 167°
2026-05-01 09:29 33.04200 -95.19518 25103 ft 319 kts 181°
2026-05-01 09:29 33.02088 -95.18998 25694 ft 314 kts 187°
2026-05-01 09:30 32.97319 -95.18796 21841 ft 390 kts 195°
2026-05-01 09:30 32.94478 -95.19247 20096 ft 421 kts 199°
2026-05-01 09:30 32.89392 -95.20891 23556 ft 315 kts 212°
2026-05-01 09:31 32.87546 -95.21806 25589 ft 266 kts 219°
2026-05-01 09:31 32.85952 -95.22875 26010 ft 267 kts 225°
2026-05-01 09:31 32.82846 -95.26111 22028 ft 348 kts 235°
2026-05-01 09:32 32.81228 -95.28523 20264 ft 383 kts 239°
2026-05-01 09:32 32.78833 -95.33433 23708 ft 282 kts 251°
2026-05-01 09:32 32.78217 -95.35427 25849 ft 236 kts 256°
2026-05-01 09:33 32.77872 -95.37319 26358 ft 242 kts 261°
2026-05-01 09:33 32.77719 -95.39411 25004 ft 274 kts 266°
2026-05-01 09:33 32.77874 -95.44893 20599 ft 374 kts 274°
2026-05-01 09:34 32.78226 -95.47898 21316 ft 350 kts 278°
2026-05-01 09:34 32.78728 -95.50421 24011 ft 283 kts 282°
2026-05-01 09:34 32.80109 -95.54239 26569 ft 255 kts 289°
2026-05-01 09:35 32.81080 -95.56179 25026 ft 293 kts 293°
2026-05-01 09:35 32.83856 -95.60999 20809 ft 390 kts 301°
2026-05-01 09:35 32.85492 -95.63420 21878 ft 360 kts 304°
2026-05-01 09:36 32.87073 -95.65363 24601 ft 296 kts 307°
2026-05-01 09:36 32.88562 -95.66815 26528 ft 267 kts 309°
2026-05-01 09:36 32.90141 -95.68105 26531 ft 289 kts 312°
2026-05-01 09:36 32.91958 -95.69465 24584 ft 333 kts 317°
2026-05-01 09:37 32.94113 -95.71016 21948 ft 398 kts 321°
2026-05-01 09:37 32.99066 -95.74162 22871 ft 366 kts 326°
2026-05-01 09:37 33.01240 -95.75168 25507 ft 308 kts 327°
2026-05-01 09:38 33.05323 -95.76448 26092 ft 328 kts 332°
2026-05-01 09:38 33.07719 -95.77101 23730 ft 384 kts 336°
2026-05-01 09:38 33.10521 -95.77857 21442 ft 437 kts 339°
2026-05-01 09:39 33.16216 -95.78980 24291 ft 359 kts 343°
2026-05-01 09:39 33.18549 -95.79099 26473 ft 320 kts 344°
2026-05-01 09:39 33.20768 -95.79043 26835 ft 334 kts 346°
2026-05-01 09:40 33.23213 -95.78913 25098 ft 374 kts 350°
2026-05-01 09:40 33.29219 -95.78485 21389 ft 455 kts 356°
2026-05-01 09:40 33.32266 -95.78069 23125 ft 412 kts 359°
2026-05-01 09:41 33.34860 -95.77470 25710 ft 355 kts
2026-05-01 09:41 33.39541 -95.75832 26108 ft 376 kts
2026-05-01 09:41 33.42209 -95.74777 23662 ft 436 kts
2026-05-01 09:42 33.45231 -95.73524 21625 ft 480 kts 12°
2026-05-01 09:42 33.48298 -95.72096 22307 ft 457 kts 14°
2026-05-01 09:42 33.53255 -95.69068 26835 ft 364 kts 19°
2026-05-01 09:43 33.57802 -95.65543 24594 ft 434 kts 25°
2026-05-01 09:43 33.60460 -95.63345 21996 ft 498 kts 28°
2026-05-01 09:43 33.63269 -95.60854 21719 ft 492 kts 31°
2026-05-01 09:44 33.67818 -95.56014 26351 ft 387 kts 37°
2026-05-01 09:44 33.69631 -95.53683 26922 ft 395 kts 40°
2026-05-01 09:44 33.71513 -95.51084 25363 ft 432 kts 44°
2026-05-01 09:45 33.73572 -95.48075 22729 ft 497 kts 46°
2026-05-01 09:45 33.77682 -95.41252 23282 ft 469 kts 53°
2026-05-01 09:45 33.79217 -95.38146 25735 ft 411 kts 57°
2026-05-01 09:46 33.80497 -95.35164 26955 ft 400 kts 61°
2026-05-01 09:46 33.81704 -95.32003 26011 ft 430 kts 63°
2026-05-01 09:46 33.82904 -95.28511 23611 ft 487 kts 66°
2026-05-01 09:46 33.84128 -95.24459 21642 ft 528 kts 70°
2026-05-01 09:47 33.85173 -95.20314 22523 ft 497 kts 74°
2026-05-01 09:47 33.85918 -95.16536 24982 ft 436 kts 78°
2026-05-01 09:47 33.86417 -95.13087 26684 ft 407 kts 83°
2026-05-01 09:47 33.86749 -95.09644 26511 ft 427 kts 87°
2026-05-01 09:48 33.86938 -95.05986 24603 ft 466 kts 90°
2026-05-01 09:48 33.86952 -95.01837 22206 ft 520 kts 93°
2026-05-01 09:48 33.86731 -94.97457 21873 ft 515 kts 98°
2026-05-01 09:48 33.86294 -94.93390 24047 ft 457 kts 103°
2026-05-01 09:49 33.85718 -94.89855 26204 ft 408 kts 109°
2026-05-01 09:49 33.85018 -94.86642 26817 ft 407 kts 114°
2026-05-01 09:49 33.84087 -94.83300 25544 ft 435 kts 117°
2026-05-01 09:49 33.82863 -94.79764 23202 ft 486 kts 120°
2026-05-01 09:50 33.81257 -94.76007 21751 ft 507 kts 124°
2026-05-01 09:50 33.79456 -94.72482 22939 ft 471 kts 130°
2026-05-01 09:50 33.77698 -94.69518 25411 ft 404 kts 138°
2026-05-01 09:50 33.76008 -94.67024 27088 ft 371 kts 145°
2026-05-01 09:51 33.74227 -94.64782 26820 ft 384 kts 150°
2026-05-01 09:51 33.72146 -94.62598 24805 ft 419 kts 153°
2026-05-01 09:51 33.69609 -94.60450 22357 ft 469 kts 156°
2026-05-01 09:51 33.66739 -94.58507 21713 ft 467 kts 162°
2026-05-01 09:52 33.63928 -94.56983 23723 ft 409 kts 170°
2026-05-01 09:52 33.61515 -94.55938 26149 ft 341 kts 178°
2026-05-01 09:52 33.59311 -94.55234 27449 ft 315 kts 186°
2026-05-01 09:52 33.57122 -94.54849 26750 ft 329 kts 191°
2026-05-01 09:53 33.54706 -94.54790 24430 ft 370 kts 195°
2026-05-01 09:53 33.51947 -94.55162 21797 ft 425 kts 199°
2026-05-01 09:53 33.49089 -94.55954 21292 ft 418 kts 205°
2026-05-01 09:53 33.46516 -94.56990 23474 ft 354 kts 212°
2026-05-01 09:54 33.44503 -94.58059 26087 ft 281 kts 220°
2026-05-01 09:54 33.42954 -94.59211 27568 ft 252 kts 229°
2026-05-01 09:54 33.41643 -94.60630 27072 ft 267 kts 236°
2026-05-01 09:54 33.40421 -94.62489 24867 ft 307 kts 242°
2026-05-01 09:55 33.39252 -94.64942 22183 ft 369 kts 248°
2026-05-01 09:55 33.38238 -94.67851 21249 ft 377 kts 253°
2026-05-01 09:55 33.37547 -94.70727 23020 ft 329 kts 260°
2026-05-01 09:55 33.37248 -94.73137 25728 ft 259 kts 265°
2026-05-01 09:56 33.37272 -94.75128 27510 ft 232 kts 271°
2026-05-01 09:56 33.37563 -94.77099 27374 ft 255 kts 277°
2026-05-01 09:56 33.38109 -94.79255 25392 ft 298 kts 284°
2026-05-01 09:56 33.38954 -94.81818 22744 ft 364 kts 289°
2026-05-01 09:57 33.40097 -94.84682 21532 ft 384 kts 294°
2026-05-01 09:57 33.41397 -94.87351 23032 ft 347 kts 297°
2026-05-01 09:57 33.42702 -94.89444 25726 ft 283 kts 300°
2026-05-01 09:57 33.44002 -94.91032 27597 ft 259 kts 303°
2026-05-01 09:58 33.45433 -94.92465 27419 ft 284 kts 307°
2026-05-01 09:58 33.47099 -94.93967 25350 ft 329 kts 313°
2026-05-01 09:58 33.49078 -94.95668 22807 ft 393 kts 317°
2026-05-01 09:58 33.51418 -94.97561 22123 ft 401 kts 319°
2026-05-01 09:59 33.53609 -94.99316 23965 ft 362 kts 316°
2026-05-01 09:59 33.55690 -95.01002 24698 ft 361 kts 316°
2026-05-01 09:59 33.57791 -95.02620 25402 ft 358 kts 317°